User: anonymous   Login
Location: Saint Peter Port
(49.4500°N, 2.5330°W)
Time: 09:10:41
(UTC+01:00)
Language:

Cosmos 2242 Rocket - Orbit

View from above orbital plane
View from above orbital plane
View from above satellite
View from above satellite

Ground track
Ground track

The orbit data is extracted from the following two-line orbital elements,

1 22627U 93024B   16206.55328341  .00000088  00000-0  89723-5 0  9993
2 22627  82.5207  44.3679 0022629 325.1849  88.9246 14.78034781253753
Epoch (UTC): 24 July 2016 13:16:43
Eccentricity: 0.0022629
inclination: 82.5207°
perigee height: 619 km
apogee height: 651 km
right ascension of ascending node: 44.3679°
argument of perigee: 325.1849°
revolutions per day: 14.78034781
mean anomaly at epoch: 88.9246°
orbit number at epoch: 25375

The dashed part of the orbit path shows where the satellite is in the earth's shadow,  

DLR